This is the latest recevied weather packets stored in our database for station/object JO1YDG-13. If no packets are shown the sender has not sent any weather packets the latest 10 day(s).
| Time | Temp. | Humidity | Pressure | Rain* | Wind** | Luminosity | Snow |
|---|---|---|---|---|---|---|---|
| 1777696655 | 28.89° C | 23% | 977.2 hPa | 0 mm | - | - | - |
| 1777696356 | 28.33° C | 25% | 977.2 hPa | 0 mm | - | - | - |
| 1777696056 | 27.78° C | 23% | 977.2 hPa | 0 mm | - | - | - |
| 1777695756 | 28.33° C | 24% | 977.3 hPa | 0 mm | - | - | - |
| 1777695456 | 28.33° C | 24% | 977.3 hPa | 0 mm | - | - | - |
| 1777695156 | 28.33° C | 23% | 977.4 hPa | 0 mm | - | - | - |
| 1777694856 | 27.78° C | 23% | 977.4 hPa | 0 mm | - | - | - |
| 1777694555 | 27.78° C | 23% | 977.4 hPa | 0 mm | - | - | - |
| 1777694255 | 28.33° C | 23% | 977.4 hPa | 0 mm | - | - | - |
| 1777693955 | 27.78° C | 24% | 977.4 hPa | 0 mm | - | - | - |
| 1777693656 | 27.78° C | 24% | 977.4 hPa | 0 mm | - | - | - |
| 1777693356 | 28.33° C | 23% | 977.4 hPa | 0 mm | - | - | - |
| 1777693055 | 27.78° C | 24% | 977.3 hPa | 0 mm | - | - | - |
| 1777692755 | 27.78° C | 23% | 977.3 hPa | 0 mm | - | - | - |
| 1777692455 | 28.33° C | 24% | 977.2 hPa | 0 mm | - | - | - |
| 1777692155 | 27.22° C | 25% | 977.2 hPa | 0 mm | - | - | - |
| 1777691855 | 27.22° C | 23% | 977.2 hPa | 0 mm | - | - | - |
| 1777691556 | 27.78° C | 25% | 977.2 hPa | 0 mm | - | - | - |
| 1777691256 | 27.22° C | 24% | 977.2 hPa | 0 mm | - | - | - |
| 1777690955 | 27.78° C | 25% | 977.2 hPa | 0 mm | - | - | - |
| 1777690655 | 27.22° C | 24% | 977.2 hPa | 0 mm | - | - | - |
| 1777690355 | 27.22° C | 24% | 977.2 hPa | 0 mm | - | - | - |
| 1777690056 | 27.22° C | 24% | 977.2 hPa | 0 mm | - | - | - |
| 1777689756 | 27.22° C | 24% | 977.2 hPa | 0 mm | - | - | - |
| 1777689456 | 27.22° C | 24% | 977 hPa | 0 mm | - | - | - |
* Rain latest hour (hover to see other rain measurements)
** Current wind speed in m/s (hover to see current wind gust speed)